印度国家卫星-2C星 (INSAT-2C)

导读 | 星芒AI

INSAT-2C 是印度第二代综合卫星通信系统(INSAT)系列中的一颗重要气象与通信卫星,于1995年7月由美国亚特兰蒂斯号航天飞机发射。该卫星搭载了多种遥感和通信载荷,用于天气监测、电视广播和数据传输。INSAT-2C 在轨运行期间为印度的气象预报、灾害预警和通信服务提供了重要支持,是印度空间研究组织(ISRO)在地球观测和通信领域发展的重要里程碑。

基本信息
目录编号:
23731
目录名称:
INSAT 2C
国际标识:
1995-067B
轨道中心:
EARTH
卫星名称:
印度国家卫星-2C星
卫星全名:
印度国家卫星-2C星 (INSAT-2C)
卫星状态:
在轨 (已飞行10924 天)
发射日期:
1995-12-06 UTC
国别 :
印度 (IN)
星等 :
--
轨道信息
数据来源 国际轨道数据 AOE轨道数据
星历时间 2025-11-01T00:44:05+0800
1天前
查看轨道信息
2025-11-01T04:00:00+0800
1天前
查看轨道信息
半长轴 42304.464km 42304.153km
偏心率 0.0000172 0.0000445
轨道倾角 14.172° 14.172°
近地点辐角 292.529° 272.045°
升交点赤经 9.972° 9.972°
平近点角 60.028° 129.389°
近地点 35925.601km 35924.135km
远地点 35927.057km 35927.901km
周期 1443.242分钟 1443.226分钟
每日圈数 0.997754 0.997765
详细信息
平衡模式:
三轴稳定
覆盖范围:
全球
运营商:
印度空间研究组织
运营商所在国:
印度
制造商(研发单位):
印度空间研究组织
制造商所在国:
印度
使用方式:
暂无
卫星简介
印度先后发展了“印度卫星”(INSAT)和“地球静止卫星”(GSAT)两大静止轨道通信卫星系列,共发射卫星28颗,其中INSAT系列的前4颗向美国购买,后续卫星均由ISRO研制。在自行研制的24颗通信卫星中,有19颗发射成功,3颗发射失败,2颗发射部分失败。该卫星已退役。
2D轨道图
3D轨道图
轨道高度分析图
轨道倾角分析图
轨道综合分析图
查看轨道综合分析图